Starlink 30559

operational
NORAD ID: 58039 Int'l Des: 2023-156 Owner: SPXS Country: US Constellation: starlink
LEOCIRCULAR

关于 Starlink 30559

正在加载描述...

实时位置

正在加载3D地球...

即将过境

高度历史

Altitude vs Time

uPlot chart will show altitude changes over time

两行轨道根数

1 58039U 23156M 25305.57612225 .00079407 00000-0 32070-2 0 9998
2 58039 53.1651 52.0032 0005975 351.9680 8.1222 15.24074288115292
Epoch: Nov 1, 2025 • Age: 22 hours

当前状态

高度 500.6 km
速度 7.62 km/s
星下点 51.04°N, 66.18°W
发射日期 Oct 9, 2023
运行时间 2 years
类型 internet

技术详情

分类 Payload
质量 730.00 kg
干质量 700.00 kg
总质量 730.00 kg
长度 0.30 m
直径 4.10 m
跨度 29.00 m
形状 Box + pan
制造商 SPXS
平台类型 Starlink V2M
阶段状态 In Orbit
所有者/国家 SPXS/US

大型星座

Loading constellations...